Regional Weather Roundup
Issued by NWS Newport/Morehead, NC

Current Version | Previous Version | Text Only | Print | Product List | Glossary Off
Versions: 1 2 3 4 5 6 7 8 9 10 11 12 13 14 15 16 17 18 19 20 21 22 23 24 25 26 27 28 29 30 31 32 33 34 35 36 37 38 39 40 41 42 43 44 45 46 47 48 49 50
000 ASUS42 KMHX 050624 RWRMHX WEATHER ROUNDUP FOR EASTERN NORTH CAROLINA NATIONAL WEATHER SERVICE NEWPORT/MOREHEAD CITY NC 100 AM EST MON DEC 05 2016 NOTE: "FAIR" INDICATES FEW OR NO CLOUDS BELOW 12,000 FEET WITH NO SIGNIFICANT WEATHER AND/OR OBSTRUCTIONS TO VISIBILITY NCZ015>017-031-032-045>047-102-103-050700- NORTH COAST CITY SKY/WX TMP DP RH WIND PRES REMARKS EDENTON LGT RAIN 47 45 90 CALM 30.07F ELIZABETH CITY LGT RAIN 46 44 93 E8 30.06F KITTY HAWK DRIZZLE 48 48 100 E6 30.06F MANTEO DRIZZLE 48 47 95 E7 30.08F $$ NCZ045>047-081-094-103-104-050700- CENTRAL COAST CITY SKY/WX TMP DP RH WIND PRES REMARKS FRISCO LGT RAIN 55 52 89 SE14 30.05F $$ NCZ095-097-098-100-101-050700- SOUTHERN COAST CITY SKY/WX TMP DP RH WIND PRES REMARKS BEAUFORT LGT RAIN 60 59 96 S7 30.02F FOG CEDAR ISLAND NOT AVBL JACKSONVILLE LGT RAIN 49 48 97 NE5 30.01F PINEY ISLAND LGT RAIN N/A N/A N/A E9 30.03F WILMINGTON LGT RAIN 52 52 100 CALM 30.00F FOG $$ NCZ011>013-027>030-043-044-078>080-089-090>093-098-050700- COASTAL PLAIN CITY SKY/WX TMP DP RH WIND PRES REMARKS AHOSKIE LGT RAIN 42 42 97 SE5 30.07F CLINTON RAIN 46 46 100 CALM 30.02F ELIZABETHTOWN RAIN 46 46 100 CALM 30.01F GOLDSBORO MIX PCPN 45 45 100 CALM 30.01F GREENVILLE RAIN 45 45 100 CALM 30.06F HAVELOCK LGT RAIN 51 49 92 E5 30.03F KENANSVILLE RAIN 46 45 93 CALM 30.02F FOG KINSTON LGT RAIN 46 46 99 E5 30.03F NEW BERN RAIN 48 47 96 E3 30.04F FOG RICHLANDS RAIN 46 46 100 NE5 30.02F FOG ROCKY MOUNT LGT RAIN 43 43 100 CALM 30.06F FOG WASHINGTON RAIN 45 44 96 NE5 30.04F WHITEVILLE LGT RAIN 48 47 97 CALM 30.00F $$ AMZ130-135-150-152-154-156-158-170-250-252-270-ANZ085-086-088-633-658-670-050700- MARINE OBSERVATIONS STATION/POSITION TIME TEMP WIND PRES WAVE SWELL AIR SEA DIR/SP/G HT/PER HT/PER (UTC) (F) (DEG/KT/KT) (MB) (FT/S) (FT/S) CHESAPEAKE LIGHT NOT AVBL 64 E VA BEACH 0550 51 60 140/ 4/ 6 1019.4 3/ 7 3/ 7 DUCK 0600 49 55 100/ 14/ 15 1017.7 2 E DUCK NOT AVBL OREGON INLET 0600 51 54 70/ 9/ 13 1018.0 13E OREGON INLT NOT AVBL HATTERAS CG 0600 61 58 130/ 11/ 14 1016.8 DIAMOND BUOY 0550 63 74 150/ 17/ 21 1017.6 4/ 8 3/ 8 CAPE LOOKOUT 0600 62 160/ 12/ 14 1016.3 BEAUFORT LAB 0600 60 55 160/ 7/ 10 1015.1 30 SE NEW RVR IN 0608 65 75 190/ 25/ 33 1015.5 30 SE NEW RVR IN NOT AVBL 27 SE WRIGHTSVLE 0608 66 69 190/ 19/ 27 1015.4 5 SE WRIGHTSVLE 0608 61 63 200/ 14/ 19 1015.1 225 S CAPE HAT 0550 68 73 160/ 16/ 19 1019.4 4/ 9 3/ 9 41 SE CHARLESTON 0550 74 75 170/ 23/ 29 1014.4 6/ 5 2/10 $$

USA.gov is the U.S. government's official web portal to all federal, state and local government web resources and services.